Regional Weather Roundup
Issued by NWS

Home | Current Version | Previous Version | Graphics & Text | Print | Product List | Glossary On
Versions: 1 2 3 4 5 6 7 8 9 10 11 12 13 14 15 16 17 18 19 20 21 22 23 24 25 26 27 28 29 30 31 32 33 34 35 36 37 38 39 40 41 42 43 44 45 46 47 48 49 50
000
ASUS43 KLSX 271407
RWRMO

WEATHER SUMMARY FOR MISSOURI
NATIONAL WEATHER SERVICE SPRINGFIELD MO
800 AM CST THU NOV 27 2014

NOTE: "FAIR" INDICATES FEW OR NO CLOUDS BELOW 12,000 FEET WITH NO
       SIGNIFICANT WEATHER AND/OR OBSTRUCTIONS TO VISIBILITY.
       CURRENT SKY AND/OR WEATHER CONDITIONS ARE NOT AVAILABLE FOR
       CHILLICOTHE AND FARMINGTON.

MOZ001>031-035>038-043-044-053-054-271500-
...NORTHERN AND WESTERN MISSOURI...

CITY           SKY/WX    TMP DP  RH WIND       PRES   REMARKS
KANSAS CTY INT CLOUDY    24  19  81 N5        30.51R WCI  18
KANSAS C DTWN  CLOUDY    27  20  75 N6        30.52R WCI  20
LEE`S SUMMIT   CLOUDY    26  20  77 N7        30.52R WCI  18
ST JOSEPH      CLOUDY    23  17  78 N6        30.54R WCI  16
CHILLICOTHE      N/A     25  18  74 VRB5      30.53R WCI  19
KIRKSVILLE     CLOUDY    22  18  85 NW9       30.48R WCI  12

$$
MOZ066>068-077>081-088>096-101>105-271500-
...SOUTHWEST MISSOURI...

CITY           SKY/WX    TMP DP  RH WIND       PRES   REMARKS
SPRINGFIELD    CLOUDY    30  23  75 N8        30.46R WCI  22
JOPLIN         CLEAR     23  20  88 NW3       30.52R

$$
MOZ032>034-039>042-045>050-055>058-069>072-271500-
...CENTRAL MISSOURI...

CITY           SKY/WX    TMP DP  RH WIND       PRES   REMARKS
COLUMBIA       CLOUDY    28  23  81 NW9       30.48R WCI  19
JEFFERSON CITY CLOUDY    30  24  78 NW8       30.50R WCI  22
ROLLA          CLOUDY    29  26  89 NW12      30.44R FOG     WCI  19
SEDALIA        CLOUDY    28  22  78 N10       30.50S WCI  19
WHITEMAN AFB   CLOUDY    26  21  80 N8        30.50R WCI  18
WARRENSBURG    CLOUDY    28  21  74 N7        30.52R WCI  21
OSAGE BEACH    CLOUDY    30  23  74 N5        30.49R WCI  25

$$
MOZ051-052-059>065-271500-
...EAST CENTRAL MISSOURI...

CITY           SKY/WX    TMP DP  RH WIND       PRES   REMARKS
ST LOUIS INTL  CLOUDY    31  24  75 NW14G24   30.45R HAZE    WCI  21
SPIRIT OF STL  CLOUDY    30  25  81 NW9       30.45R HAZE    WCI  22
ST CHARLES     CLOUDY    30  25  81 NW15      30.45R HAZE    WCI  19

$$
MOZ072>076-082>087-097>100-106>115-271500-
...SOUTH CENTRAL AND SOUTHEAST MISSOURI...

CITY           SKY/WX    TMP DP  RH WIND       PRES   REMARKS
CAPE GIRARDEAU CLOUDY    33  28  81 N10       30.45R WCI  25
FARMINGTON     CLOUDY    30  27  86 NW10G17   30.45R WCI  21
POPLAR BLUFF   CLOUDY    36  28  73 NW10      30.45R WCI  28
WEST PLAINS    CLOUDY    32  25  75 NW8       30.46R WCI  25

$$


USA.gov is the U.S. government's official web portal to all federal, state and local government web resources and services.